| time (UTC) | temp F | wind direction | speed knots | gust knots | rain 1hr in | rain 24hr in | rain mn in | humidity % | barometer mb |
| 20260902123349 | 71 | 215 | 1.7 | 7.0 | 0.00 | 0.00 | 0.00 | 58 | 1019.3 |
| 20260902122849 | 71 | 214 | 0.9 | 7.0 | 0.00 | 0.00 | 0.00 | 60 | 1019.1 |
| 20260902122351 | 71 | 233 | 0.9 | 3.5 | 0.00 | 0.00 | 0.00 | 61 | 1019.3 |
| 20260902121849 | 70 | 245 | 0.9 | 3.5 | 0.00 | 0.00 | 0.00 | 62 | 1019.3 |
| 20260902121349 | 70 | 252 | 0.9 | 2.6 | 0.00 | 0.00 | 0.00 | 62 | 1019.3 |
| 20260902120849 | 70 | 282 | 0.9 | 5.2 | 0.00 | 0.00 | 0.00 | 61 | 1019.4 |
| 20260902120349 | 70 | 278 | 1.7 | 2.6 | 0.00 | 0.00 | 0.00 | 61 | 1019.3 |
| 20260902115849 | 71 | 168 | 1.7 | 5.2 | 0.00 | 0.00 | 0.00 | 60 | 1019.4 |
| 20260902115349 | 72 | 222 | 0.9 | 5.2 | 0.00 | 0.00 | 0.00 | 58 | 1019.5 |
| 20260902114849 | 72 | 113 | 0.0 | 3.5 | 0.00 | 0.00 | 0.00 | 58 | 1019.3 |
| 20260902114349 | 72 | 193 | 1.7 | 3.5 | 0.00 | 0.00 | 0.00 | 58 | 1019.4 |
| 20260902113849 | 72 | 268 | 1.7 | 7.8 | 0.00 | 0.00 | 0.00 | 54 | 1019.5 |
| 20260902113349 | 72 | 232 | 0.9 | 4.3 | 0.00 | 0.00 | 0.00 | 57 | 1019.4 |
| 20260902112849 | 72 | 213 | 0.0 | 2.6 | 0.00 | 0.00 | 0.00 | 58 | 1019.4 |
| 20260902112349 | 72 | 240 | 0.9 | 1.7 | 0.00 | 0.00 | 0.00 | 57 | 1019.4 |
| 20260902111849 | 72 | 180 | 0.9 | 6.1 | 0.00 | 0.00 | 0.00 | 57 | 1019.5 |
| 20260902111351 | 73 | 185 | 0.9 | 5.2 | 0.00 | 0.00 | 0.00 | 56 | 1019.6 |
| 20260902110849 | 72 | 10 | 0.0 | 1.7 | 0.00 | 0.00 | 0.00 | 58 | 1019.7 |
| 20260902110349 | 71 | 160 | 0.9 | 1.7 | 0.00 | 0.00 | 0.00 | 59 | 1019.8 |
| 20260902105849 | 70 | 166 | 1.7 | 5.2 | 0.00 | 0.00 | 0.00 | 60 | 1019.7 |
| 20260902105349 | 70 | 228 | 0.9 | 4.3 | 0.00 | 0.00 | 0.00 | 59 | 1019.8 |
| 20260902104849 | 71 | 272 | 0.9 | 3.5 | 0.00 | 0.00 | 0.00 | 59 | 1019.8 |
| 20260902103849 | 71 | 195 | 0.9 | 4.3 | 0.00 | 0.00 | 0.00 | 59 | 1019.9 |
| 20260902103349 | 70 | 188 | 0.9 | 1.7 | 0.00 | 0.00 | 0.00 | 60 | 1019.8 |
| 20260902102849 | 70 | 297 | 0.9 | 3.5 | 0.00 | 0.00 | 0.00 | 59 | 1020.0 |
| 20260902102348 | 70 | 281 | 0.9 | 3.5 | 0.00 | 0.00 | 0.00 | 59 | 1020.1 |
| 20260902101848 | 70 | 113 | 0.9 | 1.7 | 0.00 | 0.00 | 0.00 | 60 | 1020.0 |
| 20260902101348 | 70 | 273 | 1.7 | 3.5 | 0.00 | 0.00 | 0.00 | 61 | 1020.1 |
| 20260902100848 | 70 | 274 | 0.9 | 3.5 | 0.00 | 0.00 | 0.00 | 61 | 1020.1 |
| 20260902100348 | 70 | 254 | 0.9 | 2.6 | 0.00 | 0.00 | 0.00 | 61 | 1020.2 |
| 20260902095848 | 70 | 321 | 0.9 | 2.6 | 0.00 | 0.00 | 0.00 | 60 | 1020.1 |
| 20260902095348 | 70 | 322 | 0.9 | 2.6 | 0.00 | 0.00 | 0.00 | 61 | 1020.0 |
| 20260902094848 | 70 | 242 | 0.9 | 5.2 | 0.00 | 0.00 | 0.00 | 60 | 1020.1 |
| 20260902094348 | 69 | 176 | 0.9 | 2.6 | 0.00 | 0.00 | 0.00 | 61 | 1020.1 |
| 20260902093848 | 69 | 227 | 1.7 | 3.5 | 0.00 | 0.00 | 0.00 | 62 | 1020.1 |
| 20260902093348 | 69 | 301 | 1.7 | 5.2 | 0.00 | 0.00 | 0.00 | 60 | 1020.3 |
| 20260902092848 | 69 | 247 | 0.9 | 7.0 | 0.00 | 0.00 | 0.00 | 62 | 1020.2 |
| 20260902092348 | 69 | 195 | 0.9 | 2.6 | 0.00 | 0.00 | 0.00 | 63 | 1020.2 |
| 20260902091848 | 68 | 245 | 0.9 | 3.5 | 0.00 | 0.00 | 0.00 | 63 | 1020.2 |
| 20260902091348 | 68 | 248 | 0.9 | 3.5 | 0.00 | 0.00 | 0.00 | 63 | 1020.3 |
| 20260902090848 | 68 | 226 | 0.9 | 5.2 | 0.00 | 0.00 | 0.00 | 66 | 1020.3 |
| 20260902090348 | 68 | 280 | 0.9 | 5.2 | 0.00 | 0.00 | 0.00 | 66 | 1020.4 |
| 20260902085848 | 68 | 173 | 0.9 | 3.5 | 0.00 | 0.00 | 0.00 | 66 | 1020.4 |
| 20260902085348 | 68 | 251 | 1.7 | 3.5 | 0.00 | 0.00 | 0.00 | 67 | 1020.4 |
| 20260902084848 | 68 | 249 | 1.7 | 5.2 | 0.00 | 0.00 | 0.00 | 67 | 1020.6 |
| 20260902084348 | 68 | 258 | 1.7 | 6.1 | 0.00 | 0.00 | 0.00 | 69 | 1020.5 |
| 20260902083848 | 67 | 197 | 0.9 | 6.1 | 0.00 | 0.00 | 0.00 | 70 | 1020.4 |
| 20260902083348 | 67 | 191 | 0.9 | 5.2 | 0.00 | 0.00 | 0.00 | 72 | 1020.4 |
| 20260902082848 | 66 | 173 | 0.9 | 6.1 | 0.00 | 0.00 | 0.00 | 75 | 1020.3 |
| 20260902082348 | 65 | 188 | 0.9 | 2.6 | 0.00 | 0.00 | 0.00 | 77 | 1020.3 |
| 20260902081848 | 65 | 221 | 1.7 | 4.3 | 0.00 | 0.00 | 0.00 | 77 | 1020.5 |
| 20260902081348 | 64 | 210 | 0.9 | 4.3 | 0.00 | 0.00 | 0.00 | 78 | 1020.4 |
| 20260902080848 | 64 | 186 | 0.9 | 4.3 | 0.00 | 0.00 | 0.00 | 79 | 1020.3 |
| 20260902080348 | 64 | 177 | 1.7 | 6.1 | 0.00 | 0.00 | 0.00 | 80 | 1020.3 |
| 20260902075848 | 64 | 232 | 0.9 | 6.1 | 0.00 | 0.00 | 0.00 | 79 | 1020.3 |
| 20260902075348 | 63 | 247 | 0.9 | 3.5 | 0.00 | 0.00 | 0.00 | 81 | 1020.3 |
| 20260902074848 | 63 | 195 | 0.0 | 1.7 | 0.00 | 0.00 | 0.00 | 82 | 1020.2 |
| 20260902074348 | 62 | 186 | 0.0 | 2.6 | 0.00 | 0.00 | 0.00 | 84 | 1020.0 |
| 20260902073848 | 62 | 187 | 0.0 | 2.6 | 0.00 | 0.00 | 0.00 | 85 | 1020.2 |
| 20260902073348 | 61 | 232 | 0.0 | 1.7 | 0.00 | 0.00 | 0.00 | 86 | 1020.3 |
| 20260902072848 | 60 | 181 | 0.0 | 3.5 | 0.00 | 0.00 | 0.00 | 86 | 1020.3 |
| 20260902072348 | 60 | 195 | 0.0 | 0.9 | 0.00 | 0.00 | 0.00 | 87 | 1020.2 |
| 20260902071848 | 60 | 202 | 0.9 | 2.6 | 0.00 | 0.00 | 0.00 | 87 | 1020.2 |
| 20260902071348 | 59 | 259 | 0.9 | 2.6 | 0.00 | 0.00 | 0.00 | 88 | 1020.3 |
| 20260902070848 | 59 | 258 | 0.9 | 3.5 | 0.00 | 0.00 | 0.00 | 88 | 1020.2 |
| 20260902070348 | 59 | 212 | 0.9 | 3.5 | 0.00 | 0.00 | 0.00 | 88 | 1020.4 |
| 20260902065848 | 59 | 231 | 0.9 | 5.2 | 0.00 | 0.00 | 0.00 | 88 | 1020.3 |
| 20260902065348 | 58 | 258 | 0.9 | 4.3 | 0.00 | 0.00 | 0.00 | 89 | 1020.3 |
| 20260902064848 | 58 | 187 | 0.9 | 2.6 | 0.00 | 0.00 | 0.00 | 89 | 1020.4 |
| 20260902064348 | 58 | 195 | 0.9 | 2.6 | 0.00 | 0.00 | 0.00 | 90 | 1020.4 |
| 20260902063848 | 58 | 172 | 0.9 | 3.5 | 0.00 | 0.00 | 0.00 | 91 | 1020.3 |
| 20260902063348 | 58 | 163 | 0.0 | 1.7 | 0.00 | 0.00 | 0.00 | 92 | 1020.3 |
| 20260902062848 | 57 | 190 | 0.0 | 1.7 | 0.00 | 0.00 | 0.00 | 92 | 1020.3 |
| 20260902062348 | 57 | 180 | 0.0 | 0.9 | 0.00 | 0.00 | 0.00 | 93 | 1020.2 |
| 20260902061848 | 57 | 170 | 0.9 | 4.3 | 0.00 | 0.00 | 0.00 | 93 | 1020.2 |
| 20260902061348 | 57 | 195 | 0.9 | 2.6 | 0.00 | 0.00 | 0.00 | 94 | 1020.3 |
| 20260902060848 | 56 | 239 | 0.0 | 1.7 | 0.00 | 0.00 | 0.00 | 95 | 1020.3 |
| 20260902060348 | 56 | 188 | 0.0 | 1.7 | 0.00 | 0.00 | 0.00 | 95 | 1020.2 |
| 20260902055848 | 56 | 249 | 0.0 | 2.6 | 0.00 | 0.00 | 0.00 | 96 | 1020.4 |
| 20260902055348 | 55 | 196 | 0.0 | 0.9 | 0.00 | 0.00 | 0.00 | 97 | 1020.4 |
| 20260902054848 | 54 | 218 | 0.0 | 0.9 | 0.00 | 0.00 | 0.00 | 97 | 1020.3 |
| 20260902054348 | 54 | 192 | 0.0 | 0.9 | 0.00 | 0.00 | 0.00 | 96 | 1020.4 |
| 20260902053848 | 54 | 222 | 0.0 | 0.9 | 0.00 | 0.00 | 0.00 | 96 | 1020.4 |
| 20260902053348 | 53 | 224 | 0.0 | 0.0 | 0.00 | 0.00 | 0.00 | 96 | 1020.4 |
| 20260902052848 | 53 | 26 | 0.0 | 0.0 | 0.00 | 0.00 | 0.00 | 95 | 1020.3 |
| 20260902052348 | 53 | 226 | 0.0 | 0.0 | 0.00 | 0.00 | 0.00 | 96 | 1020.3 |
| 20260902051848 | 53 | 224 | 0.0 | 0.0 | 0.00 | 0.00 | 0.00 | 96 | 1020.4 |
| 20260902051348 | 53 | 224 | 0.0 | 0.0 | 0.00 | 0.00 | 0.00 | 96 | 1020.5 |
| 20260902050848 | 53 | 224 | 0.0 | 0.0 | 0.00 | 0.00 | 0.00 | 95 | 1020.5 |
| 20260902050348 | 53 | 224 | 0.0 | 0.0 | 0.00 | 0.00 | 0.00 | 95 | 1020.4 |
| 20260902045848 | 53 | 224 | 0.0 | 0.0 | 0.00 | 0.00 | 0.00 | 95 | 1020.3 |
| 20260902045348 | 53 | 224 | 0.0 | 0.0 | 0.00 | 0.00 | 0.00 | 95 | 1020.3 |
| 20260902044848 | 53 | 224 | 0.0 | 0.0 | 0.00 | 0.00 | 0.00 | 95 | 1020.2 |
| 20260902044348 | 53 | 225 | 0.0 | 0.0 | 0.00 | 0.00 | 0.00 | 94 | 1020.2 |
| 20260902043848 | 53 | 223 | 0.0 | 0.0 | 0.00 | 0.00 | 0.00 | 94 | 1020.1 |
| 20260902043348 | 53 | 224 | 0.0 | 0.0 | 0.00 | 0.00 | 0.00 | 94 | 1020.1 |
| 20260902042848 | 54 | 226 | 0.0 | 0.0 | 0.00 | 0.00 | 0.00 | 94 | 1020.1 |
| 20260902042348 | 54 | 224 | 0.0 | 0.0 | 0.00 | 0.00 | 0.00 | 95 | 1020.1 |
| 20260902041848 | 54 | 224 | 0.0 | 0.9 | 0.00 | 0.00 | 0.00 | 95 | 1020.2 |
| 20260902041348 | 54 | 226 | 0.0 | 0.9 | 0.00 | 0.00 | 0.00 | 95 | 1020.2 |
| 20260902040848 | 54 | 224 | 0.0 | 0.0 | 0.00 | 0.00 | 0.00 | 95 | 1020.5 |
| 20260902040348 | 54 | 224 | 0.9 | 1.7 | 0.00 | 0.00 | 0.00 | 95 | 1020.4 |
| 20260902035848 | 54 | 26 | 0.9 | 3.5 | 0.00 | 0.00 | 0.00 | 95 | 1020.4 |
| 20260902035348 | 54 | 214 | 0.9 | 3.5 | 0.00 | 0.00 | 0.00 | 95 | 1020.6 |
| 20260902034848 | 54 | 227 | 0.0 | 2.6 | 0.00 | 0.00 | 0.00 | 95 | 1020.6 |
| 20260902034348 | 54 | 26 | 0.0 | 2.6 | 0.00 | 0.00 | 0.00 | 95 | 1020.5 |
| 20260902033848 | 54 | 263 | 0.0 | 0.9 | 0.00 | 0.00 | 0.00 | 95 | 1020.4 |
| 20260902033348 | 54 | 26 | 0.0 | 1.7 | 0.00 | 0.00 | 0.00 | 95 | 1020.5 |
| 20260902032848 | 54 | 272 | 0.0 | 1.7 | 0.00 | 0.00 | 0.00 | 95 | 1020.5 |
| 20260902032348 | 54 | 289 | 0.0 | 0.9 | 0.00 | 0.00 | 0.00 | 95 | 1020.5 |
| 20260902031848 | 54 | 276 | 0.0 | 0.9 | 0.00 | 0.00 | 0.00 | 95 | 1020.5 |
| 20260902031348 | 54 | 278 | 0.0 | 0.9 | 0.00 | 0.00 | 0.00 | 95 | 1020.5 |
| 20260902030848 | 54 | 243 | 0.0 | 1.7 | 0.00 | 0.00 | 0.00 | 95 | 1020.5 |
| 20260902030348 | 54 | 227 | 0.9 | 1.7 | 0.00 | 0.00 | 0.00 | 95 | 1020.4 |
| 20260902025848 | 54 | 210 | 0.9 | 3.5 | 0.00 | 0.00 | 0.00 | 94 | 1020.5 |
| 20260902025348 | 54 | 241 | 0.9 | 3.5 | 0.00 | 0.00 | 0.00 | 94 | 1020.3 |
| 20260902024848 | 54 | 212 | 0.9 | 2.6 | 0.00 | 0.00 | 0.00 | 94 | 1020.2 |
| 20260902024348 | 54 | 26 | 1.7 | 3.5 | 0.00 | 0.00 | 0.00 | 94 | 1020.0 |
| 20260902023848 | 54 | 230 | 0.9 | 3.5 | 0.00 | 0.00 | 0.00 | 94 | 1020.1 |
| 20260902023348 | 54 | 202 | 0.9 | 3.5 | 0.00 | 0.00 | 0.00 | 94 | 1020.0 |
| 20260902022848 | 54 | 240 | 0.0 | 2.6 | 0.00 | 0.00 | 0.00 | 94 | 1020.1 |
| 20260902022348 | 54 | 207 | 0.0 | 0.0 | 0.00 | 0.00 | 0.00 | 93 | 1020.0 |
| 20260902021848 | 54 | 222 | 0.0 | 0.0 | 0.00 | 0.00 | 0.00 | 93 | 1019.9 |
| 20260902021348 | 54 | 26 | 0.0 | 0.0 | 0.00 | 0.00 | 0.00 | 93 | 1019.9 |
| 20260902020849 | 54 | 275 | 0.0 | 0.0 | 0.00 | 0.00 | 0.00 | 93 | 1019.9 |
| 20260902020348 | 54 | 26 | 0.0 | 0.0 | 0.00 | 0.00 | 0.00 | 93 | 1019.9 |
| 20260902015849 | 54 | 276 | 0.0 | 0.0 | 0.00 | 0.00 | 0.00 | 92 | 1019.9 |
| 20260902015348 | 55 | 274 | 0.0 | 0.0 | 0.00 | 0.00 | 0.00 | 91 | 1020.0 |
| 20260902014849 | 55 | 26 | 0.0 | 0.0 | 0.00 | 0.00 | 0.00 | 91 | 1020.0 |
| 20260902014348 | 55 | 275 | 0.0 | 0.0 | 0.00 | 0.00 | 0.00 | 92 | 1020.0 |
| 20260902013849 | 55 | 275 | 0.0 | 0.0 | 0.00 | 0.00 | 0.00 | 93 | 1020.0 |
| 20260902013349 | 56 | 275 | 0.0 | 0.0 | 0.00 | 0.00 | 0.00 | 92 | 1020.0 |
| 20260902012849 | 56 | 274 | 0.0 | 0.0 | 0.00 | 0.00 | 0.00 | 93 | 1020.1 |
| 20260902012349 | 56 | 276 | 0.0 | 0.0 | 0.00 | 0.00 | 0.00 | 93 | 1020.1 |
| 20260902011849 | 56 | 276 | 0.0 | 0.0 | 0.00 | 0.00 | 0.00 | 92 | 1020.1 |
| 20260902011349 | 56 | 276 | 0.0 | 0.0 | 0.00 | 0.00 | 0.00 | 92 | 1020.1 |
| 20260902010849 | 56 | 275 | 0.0 | 0.0 | 0.00 | 0.00 | 0.00 | 92 | 1020.2 |
| 20260902010349 | 56 | 274 | 0.0 | 0.0 | 0.00 | 0.00 | 0.00 | 92 | 1020.3 |
| 20260902005849 | 56 | 26 | 0.0 | 0.0 | 0.00 | 0.00 | 0.00 | 92 | 1020.3 |
| 20260902005349 | 56 | 276 | 0.0 | 0.0 | 0.00 | 0.00 | 0.00 | 91 | 1020.2 |
| 20260902004849 | 56 | 275 | 0.0 | 0.0 | 0.00 | 0.00 | 0.00 | 91 | 1020.2 |
| 20260902004349 | 56 | 275 | 0.0 | 0.0 | 0.00 | 0.00 | 0.00 | 91 | 1020.2 |
| 20260902003849 | 57 | 275 | 0.0 | 0.0 | 0.00 | 0.00 | 0.00 | 91 | 1020.1 |
| 20260902003349 | 57 | 26 | 0.0 | 0.0 | 0.00 | 0.00 | 0.00 | 91 | 1020.3 |
| 20260902002849 | 57 | 275 | 0.0 | 0.0 | 0.00 | 0.00 | 0.00 | 91 | 1020.2 |
| 20260902002349 | 57 | 275 | 0.0 | 0.0 | 0.00 | 0.00 | 0.00 | 91 | 1020.2 |
| 20260902001849 | 57 | 276 | 0.0 | 0.0 | 0.00 | 0.00 | 0.00 | 91 | 1020.2 |
| 20260902001349 | 57 | 275 | 0.0 | 0.9 | 0.00 | 0.00 | 0.00 | 91 | 1020.3 |
| 20260902000849 | 57 | 275 | 0.0 | 1.7 | 0.00 | 0.00 | 0.00 | 91 | 1020.2 |
| 20260902000349 | 57 | 275 | 0.0 | 0.9 | 0.00 | 0.00 | 0.00 | 91 | 1020.1 |
| 20260901235849 | 57 | 275 | 0.0 | 0.9 | 0.00 | 0.00 | 0.00 | 91 | 1020.1 |
| 20260901235349 | 57 | 275 | 0.0 | 1.7 | 0.00 | 0.00 | 0.00 | 91 | 1020.1 |
| 20260901234849 | 58 | 275 | 0.0 | 1.7 | 0.00 | 0.00 | 0.00 | 91 | 1020.1 |
| 20260901234349 | 58 | 244 | 0.0 | 1.7 | 0.00 | 0.00 | 0.00 | 90 | 1020.1 |
| 20260901233849 | 58 | 208 | 0.0 | 0.9 | 0.00 | 0.00 | 0.00 | 90 | 1020.1 |
| 20260901233349 | 58 | 204 | 0.0 | 0.9 | 0.00 | 0.00 | 0.00 | 90 | 1020.1 |
| 20260901232849 | 58 | 230 | 0.0 | 0.9 | 0.00 | 0.00 | 0.00 | 90 | 1020.0 |
| 20260901232349 | 58 | 293 | 0.0 | 0.9 | 0.00 | 0.00 | 0.00 | 90 | 1020.0 |
| 20260901231849 | 58 | 291 | 0.0 | 1.7 | 0.00 | 0.00 | 0.00 | 89 | 1020.0 |
| 20260901231349 | 58 | 228 | 0.0 | 1.7 | 0.00 | 0.00 | 0.00 | 89 | 1020.0 |
| 20260901230849 | 58 | 208 | 0.0 | 1.7 | 0.00 | 0.00 | 0.00 | 89 | 1019.9 |
| 20260901230349 | 59 | 277 | 0.0 | 1.7 | 0.00 | 0.00 | 0.00 | 89 | 1019.9 |
| 20260901225849 | 59 | 185 | 0.0 | 0.9 | 0.00 | 0.00 | 0.00 | 88 | 1019.9 |
| 20260901225349 | 59 | 246 | 0.0 | 0.9 | 0.00 | 0.00 | 0.00 | 88 | 1019.9 |
| 20260901224849 | 59 | 260 | 0.0 | 1.7 | 0.00 | 0.00 | 0.00 | 88 | 1019.9 |
| 20260901224349 | 59 | 206 | 0.0 | 0.9 | 0.00 | 0.00 | 0.00 | 88 | 1019.9 |
| 20260901223849 | 59 | 284 | 0.0 | 0.9 | 0.00 | 0.00 | 0.00 | 88 | 1020.0 |
| 20260901223349 | 59 | 284 | 0.0 | 0.9 | 0.00 | 0.00 | 0.00 | 88 | 1020.0 |
| 20260901222849 | 59 | 285 | 0.0 | 1.7 | 0.00 | 0.00 | 0.00 | 88 | 1020.0 |
| 20260901222349 | 60 | 301 | 0.0 | 0.9 | 0.00 | 0.00 | 0.00 | 87 | 1020.1 |
| 20260901221849 | 60 | 291 | 0.0 | 0.9 | 0.00 | 0.00 | 0.00 | 87 | 1020.0 |
| 20260901221349 | 60 | 289 | 0.0 | 1.7 | 0.00 | 0.00 | 0.00 | 87 | 1020.0 |
| 20260901220849 | 60 | 305 | 0.0 | 2.6 | 0.00 | 0.00 | 0.00 | 87 | 1020.0 |
| 20260901220349 | 60 | 183 | 0.0 | 0.9 | 0.00 | 0.00 | 0.00 | 86 | 1020.0 |
| 20260901215849 | 60 | 293 | 0.0 | 1.7 | 0.00 | 0.00 | 0.00 | 86 | 1020.0 |
| 20260901215349 | 60 | 187 | 0.0 | 2.6 | 0.00 | 0.00 | 0.00 | 86 | 1019.8 |
| 20260901214849 | 60 | 246 | 0.0 | 1.7 | 0.00 | 0.00 | 0.00 | 86 | 1019.8 |
| 20260901214349 | 60 | 287 | 0.0 | 2.6 | 0.00 | 0.00 | 0.00 | 86 | 1019.8 |
| 20260901213849 | 61 | 208 | 0.0 | 1.7 | 0.00 | 0.00 | 0.00 | 85 | 1019.8 |
| 20260901213349 | 61 | 268 | 0.0 | 1.7 | 0.00 | 0.00 | 0.00 | 85 | 1019.9 |
| 20260901212849 | 61 | 26 | 0.9 | 3.5 | 0.00 | 0.00 | 0.00 | 84 | 1019.8 |
| 20260901212349 | 61 | 223 | 0.0 | 3.5 | 0.00 | 0.00 | 0.00 | 84 | 1019.8 |
| 20260901211849 | 61 | 276 | 0.0 | 1.7 | 0.00 | 0.00 | 0.00 | 84 | 1019.8 |
| 20260901211349 | 61 | 226 | 0.0 | 0.9 | 0.00 | 0.00 | 0.00 | 83 | 1019.9 |
| 20260901210849 | 62 | 279 | 0.0 | 0.9 | 0.00 | 0.00 | 0.00 | 83 | 1019.8 |
| 20260901210349 | 62 | 291 | 0.0 | 0.9 | 0.00 | 0.00 | 0.00 | 82 | 1019.9 |
| 20260901205849 | 62 | 318 | 0.0 | 0.9 | 0.00 | 0.00 | 0.00 | 81 | 1019.8 |
| 20260901205349 | 62 | 318 | 0.0 | 1.7 | 0.00 | 0.00 | 0.00 | 81 | 1019.8 |
| 20260901204849 | 62 | 268 | 0.0 | 0.0 | 0.00 | 0.00 | 0.00 | 80 | 1019.7 |
| 20260901204349 | 63 | 268 | 0.0 | 0.0 | 0.00 | 0.00 | 0.00 | 80 | 1019.8 |
| 20260901203849 | 63 | 268 | 0.0 | 0.9 | 0.00 | 0.00 | 0.00 | 80 | 1019.7 |
| 20260901203349 | 63 | 185 | 0.0 | 1.7 | 0.00 | 0.00 | 0.00 | 79 | 1019.7 |
| 20260901202849 | 63 | 300 | 0.0 | 2.6 | 0.00 | 0.00 | 0.00 | 79 | 1019.7 |
| 20260901202349 | 63 | 247 | 0.9 | 2.6 | 0.00 | 0.00 | 0.00 | 78 | 1019.6 |
| 20260901201849 | 64 | 267 | 0.9 | 3.5 | 0.00 | 0.00 | 0.00 | 78 | 1019.7 |
| 20260901201349 | 64 | 277 | 0.9 | 1.7 | 0.00 | 0.00 | 0.00 | 78 | 1019.7 |
| 20260901200849 | 64 | 283 | 0.9 | 3.5 | 0.00 | 0.00 | 0.00 | 78 | 1019.8 |
| 20260901200350 | 64 | 314 | 1.7 | 5.2 | 0.00 | 0.00 | 0.00 | 78 | 1019.6 |
| 20260901195850 | 64 | 264 | 1.7 | 5.2 | 0.00 | 0.00 | 0.00 | 78 | 1019.7 |
| 20260901195350 | 64 | 266 | 0.9 | 5.2 | 0.00 | 0.00 | 0.00 | 78 | 1019.6 |
| 20260901194850 | 64 | 261 | 0.9 | 2.6 | 0.00 | 0.00 | 0.00 | 77 | 1019.6 |
| 20260901194350 | 64 | 227 | 0.9 | 5.2 | 0.00 | 0.00 | 0.00 | 77 | 1019.6 |
| 20260901193850 | 64 | 266 | 0.9 | 5.2 | 0.00 | 0.00 | 0.00 | 77 | 1019.6 |
| 20260901193350 | 64 | 298 | 0.0 | 3.5 | 0.00 | 0.00 | 0.00 | 77 | 1019.6 |
| 20260901192350 | 64 | 267 | 0.0 | 1.7 | 0.00 | 0.00 | 0.00 | 77 | 1019.6 |
| 20260901191850 | 65 | 233 | 0.0 | 0.9 | 0.00 | 0.00 | 0.00 | 76 | 1019.6 |
| 20260901191350 | 65 | 208 | 0.0 | 0.9 | 0.00 | 0.00 | 0.00 | 76 | 1019.6 |
| 20260901190850 | 65 | 203 | 0.0 | 4.3 | 0.00 | 0.00 | 0.00 | 76 | 1019.5 |
| 20260901190350 | 65 | 233 | 0.0 | 1.7 | 0.00 | 0.00 | 0.00 | 76 | 1019.4 |
| 20260901185850 | 65 | 206 | 0.9 | 2.6 | 0.00 | 0.00 | 0.00 | 75 | 1019.4 |
| 20260901185350 | 65 | 239 | 0.9 | 3.5 | 0.00 | 0.00 | 0.00 | 75 | 1019.2 |
| 20260901184850 | 65 | 231 | 0.0 | 3.5 | 0.00 | 0.00 | 0.00 | 75 | 1019.3 |
| 20260901184350 | 65 | 232 | 0.0 | 1.7 | 0.00 | 0.00 | 0.00 | 75 | 1019.2 |
| 20260901183850 | 65 | 256 | 0.9 | 2.6 | 0.00 | 0.00 | 0.00 | 75 | 1019.0 |
| 20260901183350 | 65 | 248 | 0.9 | 4.3 | 0.00 | 0.00 | 0.00 | 75 | 1019.0 |
| 20260901182850 | 65 | 242 | 0.9 | 7.0 | 0.00 | 0.00 | 0.00 | 75 | 1019.0 |
| 20260901182350 | 66 | 296 | 0.9 | 2.6 | 0.00 | 0.00 | 0.00 | 74 | 1019.0 |
| 20260901181850 | 66 | 249 | 0.9 | 3.5 | 0.00 | 0.00 | 0.00 | 74 | 1019.0 |
| 20260901181350 | 66 | 244 | 0.9 | 3.5 | 0.00 | 0.00 | 0.00 | 73 | 1018.9 |
| 20260901180850 | 66 | 219 | 0.9 | 2.6 | 0.00 | 0.00 | 0.00 | 73 | 1018.8 |
| 20260901180350 | 66 | 212 | 0.9 | 3.5 | 0.00 | 0.00 | 0.00 | 72 | 1018.9 |
| 20260901175850 | 66 | 209 | 0.9 | 5.2 | 0.00 | 0.00 | 0.00 | 72 | 1018.8 |
| 20260901175350 | 67 | 262 | 0.9 | 3.5 | 0.00 | 0.00 | 0.00 | 71 | 1018.9 |
| 20260901174850 | 67 | 258 | 0.9 | 5.2 | 0.00 | 0.00 | 0.00 | 71 | 1018.9 |
| 20260901174350 | 67 | 271 | 1.7 | 5.2 | 0.00 | 0.00 | 0.00 | 71 | 1018.8 |
| 20260901173850 | 67 | 237 | 1.7 | 3.5 | 0.00 | 0.00 | 0.00 | 72 | 1018.8 |
| 20260901173350 | 67 | 262 | 1.7 | 3.5 | 0.00 | 0.00 | 0.00 | 72 | 1018.8 |
| 20260901172850 | 67 | 266 | 1.7 | 6.1 | 0.00 | 0.00 | 0.00 | 72 | 1018.7 |
| 20260901172350 | 67 | 298 | 1.7 | 6.1 | 0.00 | 0.00 | 0.00 | 72 | 1018.7 |
| 20260901171850 | 67 | 245 | 0.9 | 3.5 | 0.00 | 0.00 | 0.00 | 72 | 1018.7 |
| 20260901171350 | 67 | 280 | 0.9 | 4.3 | 0.00 | 0.00 | 0.00 | 72 | 1018.7 |
| 20260901170850 | 68 | 188 | 0.9 | 3.5 | 0.00 | 0.00 | 0.00 | 72 | 1018.7 |
| 20260901170350 | 68 | 252 | 1.7 | 3.5 | 0.00 | 0.00 | 0.00 | 72 | 1018.6 |
| 20260901165850 | 68 | 218 | 1.7 | 7.8 | 0.00 | 0.00 | 0.00 | 72 | 1018.7 |
| 20260901165350 | 68 | 307 | 0.9 | 7.0 | 0.00 | 0.00 | 0.00 | 71 | 1018.7 |
| 20260901164850 | 68 | 266 | 0.0 | 1.7 | 0.00 | 0.00 | 0.00 | 72 | 1018.6 |
| 20260901164350 | 68 | 266 | 0.9 | 2.6 | 0.00 | 0.00 | 0.00 | 72 | 1018.5 |
| 20260901163850 | 68 | 320 | 1.7 | 4.3 | 0.00 | 0.00 | 0.00 | 72 | 1018.4 |
| 20260901163350 | 68 | 285 | 2.6 | 5.2 | 0.00 | 0.00 | 0.00 | 72 | 1018.4 |
| 20260901162850 | 68 | 335 | 3.5 | 7.0 | 0.00 | 0.00 | 0.00 | 72 | 1018.4 |
| 20260901162350 | 69 | 328 | 3.5 | 6.1 | 0.00 | 0.00 | 0.00 | 70 | 1018.3 |
| 20260901161850 | 69 | 335 | 4.3 | 5.2 | 0.00 | 0.00 | 0.00 | 70 | 1018.2 |
| 20260901161350 | 69 | 348 | 6.1 | 11.3 | 0.00 | 0.00 | 0.00 | 70 | 1018.3 |
| 20260901160850 | 69 | 344 | 6.1 | 9.6 | 0.00 | 0.00 | 0.00 | 68 | 1018.3 |
| 20260901160350 | 70 | 26 | 7.0 | 12.2 | 0.00 | 0.00 | 0.00 | 67 | 1018.4 |
| 20260901155850 | 71 | 335 | 6.1 | 12.2 | 0.00 | 0.00 | 0.00 | 65 | 1018.3 |
| 20260901155350 | 71 | 343 | 5.2 | 8.7 | 0.00 | 0.00 | 0.00 | 62 | 1018.3 |
| 20260901154850 | 72 | 319 | 5.2 | 8.7 | 0.00 | 0.00 | 0.00 | 60 | 1018.2 |
| 20260901154350 | 72 | 318 | 4.3 | 8.7 | 0.00 | 0.00 | 0.00 | 59 | 1018.2 |
| 20260901153350 | 72 | 324 | 2.6 | 6.1 | 0.00 | 0.00 | 0.00 | 60 | 1018.0 |
| 20260901152850 | 72 | 273 | 2.6 | 7.8 | 0.00 | 0.00 | 0.00 | 60 | 1018.2 |
| 20260901152350 | 73 | 295 | 2.6 | 7.0 | 0.00 | 0.00 | 0.00 | 58 | 1018.2 |
| 20260901151850 | 73 | 282 | 2.6 | 7.0 | 0.00 | 0.32 | 0.00 | 57 | 1018.2 |
| 20260901151350 | 73 | 276 | 2.6 | 7.0 | 0.00 | 0.32 | 0.00 | 58 | 1018.1 |
| 20260901150850 | 73 | 218 | 2.6 | 9.6 | 0.00 | 0.32 | 0.00 | 57 | 1018.1 |
| 20260901150350 | 73 | 220 | 2.6 | 7.0 | 0.00 | 0.32 | 0.00 | 56 | 1017.9 |
| 20260901145850 | 74 | 278 | 2.6 | 4.3 | 0.00 | 0.32 | 0.00 | 55 | 1017.8 |
| 20260901145350 | 74 | 247 | 2.6 | 6.1 | 0.00 | 0.32 | 0.00 | 54 | 1018.0 |
| 20260901144850 | 75 | 307 | 2.6 | 10.4 | 0.00 | 0.32 | 0.00 | 54 | 1017.9 |
| 20260901144350 | 75 | 297 | 2.6 | 6.1 | 0.00 | 0.32 | 0.00 | 55 | 1017.9 |
| 20260901143850 | 75 | 283 | 3.5 | 6.1 | 0.00 | 0.32 | 0.00 | 54 | 1017.9 |
| 20260901143350 | 75 | 271 | 4.3 | 7.0 | 0.00 | 0.32 | 0.00 | 54 | 1017.9 |
| 20260901142850 | 75 | 308 | 3.5 | 10.4 | 0.00 | 0.32 | 0.00 | 54 | 1017.9 |
| 20260901142350 | 75 | 323 | 2.6 | 7.8 | 0.00 | 0.32 | 0.00 | 55 | 1017.8 |
| 20260901141850 | 75 | 297 | 3.5 | 10.4 | 0.00 | 0.32 | 0.00 | 55 | 1017.9 |
| 20260901141350 | 76 | 79 | 2.6 | 8.7 | 0.00 | 0.32 | 0.00 | 53 | 1017.9 |
| 20260901140850 | 76 | 280 | 2.6 | 7.0 | 0.00 | 0.32 | 0.00 | 54 | 1018.0 |
| 20260901135850 | 76 | 290 | 2.6 | 5.2 | 0.00 | 0.32 | 0.00 | 55 | 1017.9 |
| 20260901135350 | 75 | 251 | 3.5 | 7.0 | 0.00 | 0.32 | 0.00 | 54 | 1017.9 |
| 20260901134850 | 75 | 299 | 2.6 | 7.0 | 0.00 | 0.32 | 0.00 | 55 | 1017.9 |
| 20260901134350 | 75 | 315 | 3.5 | 7.0 | 0.00 | 0.32 | 0.00 | 56 | 1018.0 |
| 20260901133852 | 75 | 233 | 3.5 | 7.0 | 0.00 | 0.32 | 0.00 | 55 | 1018.0 |
| 20260901133350 | 75 | 272 | 3.5 | 7.8 | 0.00 | 0.32 | 0.00 | 55 | 1018.1 |
| 20260901132850 | 74 | 268 | 2.6 | 6.1 | 0.00 | 0.32 | 0.00 | 56 | 1018.0 |
| 20260901132350 | 74 | 287 | 3.5 | 9.6 | 0.00 | 0.32 | 0.00 | 56 | 1018.1 |
| 20260901131850 | 74 | 229 | 3.5 | 7.8 | 0.00 | 0.32 | 0.00 | 56 | 1018.0 |
| 20260901131350 | 74 | 253 | 2.6 | 7.8 | 0.00 | 0.32 | 0.00 | 58 | 1018.1 |
| 20260901130850 | 74 | 270 | 3.5 | 7.0 | 0.00 | 0.32 | 0.00 | 59 | 1018.1 |
| 20260901130350 | 73 | 306 | 4.3 | 9.6 | 0.00 | 0.32 | 0.00 | 58 | 1018.1 |
| 20260901125850 | 73 | 325 | 4.3 | 9.6 | 0.00 | 0.32 | 0.00 | 58 | 1018.1 |
| 20260901125350 | 73 | 326 | 3.5 | 10.4 | 0.00 | 0.32 | 0.00 | 58 | 1018.2 |
| 20260901124850 | 73 | 274 | 3.5 | 9.6 | 0.00 | 0.32 | 0.00 | 57 | 1018.2 |
| 20260901124350 | 73 | 286 | 3.5 | 8.7 | 0.00 | 0.32 | 0.00 | 58 | 1018.2 |
| 20260901123850 | 73 | 299 | 3.5 | 7.0 | 0.00 | 0.32 | 0.00 | 58 | 1018.3 |